Regional Weather Roundup
Issued by NWS

Home | Current Version | Previous Version | Text Only | Print | Product List | Glossary On
Versions: 1 2 3 4 5 6 7 8 9 10 11 12 13 14 15 16 17 18 19 20 21 22 23 24 25 26 27 28 29 30 31 32 33 34 35 36 37 38 39 40 41 42 43 44 45 46 47 48 49 50
911
ASUS43 KMKX 241821
RWRWI

WISCONSIN REGIONAL WEATHER ROUNDUP
NATIONAL WEATHER SERVICE MILWAUKEE/SULLIVAN WI
100 PM CDT SAT JUN 24 2017

NOTE: "FAIR" INDICATES FEW OR NO CLOUDS BELOW 12,000 FEET WITH NO
SIGNIFICANT WEATHER AND/OR OBSTRUCTIONS TO VISIBILITY.

WIZ001-002-006>008-014>016-023>028-241900-
NORTHWEST WISCONSIN

CITY           SKY/WX    TMP DP  RH WIND       PRES   REMARKS
SUPERIOR ARPT  NOT AVBL
ASHLAND        CLOUDY    57  51  80 W9        29.94R
6HR MIN TEMP:  54; 6HR MAX TEMP:  58; 6HR PCP: TRACE;

HAYWARD        CLOUDY    62  44  51 SW8       29.95S
6HR MIN TEMP:  53; 6HR MAX TEMP:  62;

SIREN          CLOUDY    63  40  43 W16       29.97S
6HR MIN TEMP:  52; 6HR MAX TEMP:  63;

CUMBERLAND     CLOUDY    61  41  48 W15       29.98S
RICE LAKE      PTSUNNY   64  43  46 W13G20    29.99S
6HR MIN TEMP:  54; 6HR MAX TEMP:  64;

CHETEK         PTSUNNY   64  46  51 NW8       29.97F
6HR MIN TEMP:  54; 6HR MAX TEMP:  64;

LADYSMITH      PTSUNNY   61  47  58 W14       29.97S
6HR MIN TEMP:  54; 6HR MAX TEMP:  64;

EAU CLAIRE     PTSUNNY   64  41  42 W18G25    29.98S
6HR MIN TEMP:  54; 6HR MAX TEMP:  65;

MENOMONIE      PTSUNNY   64  42  45 W12G25    30.00S
6HR MIN TEMP:  55; 6HR MAX TEMP:  65;

NEW RICHMOND   CLOUDY    61  37  41 W12       30.00F
6HR MIN TEMP:  52; 6HR MAX TEMP:  64;

OSCEOLA        CLOUDY    64  43  46 W14       30.02F
6HR MIN TEMP:  54; 6HR MAX TEMP:  64;

$$

WIZ003>005-009-010-017-018-241900-
NORTH CENTRAL WISCONSIN

CITY           SKY/WX    TMP DP  RH WIND       PRES   REMARKS
MANITOWISH WTR CLOUDY    54  54 100 W7        29.93R
6HR MIN TEMP:  52; 6HR MAX TEMP:  55;

ARBOR VITAE    CLOUDY    57  53  86 W7        29.92R
6HR MIN TEMP:  57; 6HR MAX TEMP:  59;

WOODRUFF       CLOUDY    57  53  86 W7        29.92R
6HR MIN TEMP:  57; 6HR MAX TEMP:  59;

RHINELANDER    CLOUDY    60  50  69 W13       29.93R
6HR MIN TEMP:  55; 6HR MAX TEMP:  61;

EAGLE RIVER    DRIZZLE   56  49  76 W7        29.91S
6HR MIN TEMP:  55; 6HR MAX TEMP:  57;

LAND O LAKES   LGT RAIN  55  53  91 W6        29.93R
6HR MIN TEMP:  54; 6HR MAX TEMP:  55;

PHILLIPS       CLOUDY    59  48  66 W8        29.93S
6HR MIN TEMP:  53; 6HR MAX TEMP:  59;

TOMAHAWK       NOT AVBL
MEDFORD        MOSUNNY   60  41  50 W8G16     29.95S
6HR MIN TEMP:  52; 6HR MAX TEMP:  61;

MERRILL        CLOUDY    62  47  57 W13       29.94S
6HR MIN TEMP:  55; 6HR MAX TEMP:  61;

$$

WIZ029-030-035-036-043>047-241900-
CENTRAL WISCONSIN

CITY           SKY/WX    TMP DP  RH WIND       PRES   REMARKS
WAUSAU         CLOUDY    62  44  51 W15       29.93R
6HR MIN TEMP:  55; 6HR MAX TEMP:  63;

MOSINEE        PTSUNNY   63  45  51 W18       29.96R
MARSHFIELD     PTSUNNY   61  43  51 W20G26    29.97R
6HR MIN TEMP:  53; 6HR MAX TEMP:  63;

STEVENS POINT  CLOUDY    63  41  43 W14G26    29.96S
6HR MIN TEMP:  54; 6HR MAX TEMP:  63;

WAUPACA        CLOUDY    68  44  41 W13       29.95S
6HR MIN TEMP:  61; 6HR MAX TEMP:  67;

WAUTOMA        MOSUNNY   67  46  47 W21G28    29.97S
6HR MIN TEMP:  57; 6HR MAX TEMP:  67;

WISC RAPIDS    MOSUNNY   67  43  41 NW14G25   29.98S
6HR MIN TEMP:  57; 6HR MAX TEMP:  68;

CAMP DOUGLAS   MOSUNNY   64  46  52 W14G25    29.99S
$$

WIZ011>013-019>022-031-037>040-048>050-241900-
NORTHEAST WISCONSIN

CITY           SKY/WX    TMP DP  RH WIND       PRES   REMARKS
ANTIGO         CLOUDY    61  50  68 NW16      29.93S
6HR MIN TEMP:  54; 6HR MAX TEMP:  61;

SHAWANO        CLOUDY    65  51  60 W14       29.91S
OCONTO         CLOUDY    66  53  64 W9G16     29.88R
6HR MIN TEMP:  56; 6HR MAX TEMP:  67; 6HR PCP:  0.02;

STURGEON BAY     N/A     60  56  86 NW14        N/A
6HR MIN TEMP:  60; 6HR MAX TEMP:  66;

GREEN BAY      PTSUNNY   68  54  60 W20G28    29.91R
6HR MIN TEMP:  60; 6HR MAX TEMP:  70; 6HR PCP: TRACE;

MANITOWOC      PTSUNNY   68  50  52 W18G25    29.91R
6HR MIN TEMP:  60; 6HR MAX TEMP:  69;

APPLETON       PTSUNNY   64  46  52 W15G24    29.93R
CLINTONVILLE   CLOUDY    63  46  55 NW17G23   29.93R
OSHKOSH        CLOUDY    67  46  47 W15G23    29.94R
6HR MIN TEMP:  60; 6HR MAX TEMP:  68;

$$

WIZ032>034-041-042-053>061-241900-
SOUTHWEST WISCONSIN

CITY           SKY/WX    TMP DP  RH WIND       PRES   REMARKS
LA CROSSE      PTSUNNY   70  43  37 NW21G26   30.02R
6HR MIN TEMP:  63; 6HR MAX TEMP:  71;

SPARTA         PTSUNNY   64  44  46 W12G18    30.02S
6HR MIN TEMP:  57; 6HR MAX TEMP:  65;

VIROQUA        PTSUNNY   63  45  52 NW16G23   30.04R
6HR MIN TEMP:  56; 6HR MAX TEMP:  64;

BOSCOBEL       MOSUNNY   69  43  38 NW10G23   30.04R
6HR MIN TEMP:  60; 6HR MAX TEMP:  70;

PRAIRIE DU CHI SUNNY     68  39  34 NW17G32   30.05S
6HR MIN TEMP:  58; 6HR MAX TEMP:  68;

PLATTEVILLE    MOSUNNY   68  43  40 W21G31    30.05S
6HR MIN TEMP:  58; 6HR MAX TEMP:  69;

$$

WIZ056-057-062-063-064-067-068-241900-
SOUTH CENTRAL WISCONSIN

CITY           SKY/WX    TMP DP  RH WIND       PRES   REMARKS
REEDSBURG      MOSUNNY   67  49  52 W21G26    30.00R
6HR MIN TEMP:  58; 6HR MAX TEMP:  67;

BARABOO/DELLS  PTSUNNY   66  46  48 W15G28    29.99S
6HR MIN TEMP:  57; 6HR MAX TEMP:  67;

LONE ROCK      PTSUNNY   65  44  46 W18G32    30.02R
6HR MIN TEMP:  59; 6HR MAX TEMP:  68;

MINERAL POINT  PTSUNNY   68  45  42 W20G26    30.03R
MADISON        PTSUNNY   67  47  48 W10G21    29.99R
6HR MIN TEMP:  59; 6HR MAX TEMP:  68;

MIDDLETON      MOSUNNY   70  50  50 W12       30.00S
6HR MIN TEMP:  60; 6HR MAX TEMP:  70;

WATERTOWN      PTSUNNY   65  46  49 NW10G18   29.98S
6HR MIN TEMP:  60; 6HR MAX TEMP:  67; 6HR PCP:  0.01;

MONROE         MOSUNNY   68  43  40 W22       30.02S
JANESVILLE     PTSUNNY   72  46  40 W14G22    30.00R
$$

WIZ051-052-058>065-066-070>072-241900-
SOUTHEAST WISCONSIN

CITY           SKY/WX    TMP DP  RH WIND       PRES   REMARKS
MILWAUKEE      MOSUNNY   70  45  40 W12       29.97R
6HR MIN TEMP:  63; 6HR MAX TEMP:  72;

WAUKESHA       PTSUNNY   64  48  55 W14G21    29.99R
MILWAUKEE/TIMM MOSUNNY   68  43  40 W13G23    29.98R
RACINE         MOSUNNY   71  45  39 W13G25    29.99R
6HR MIN TEMP:  62; 6HR MAX TEMP:  72;

KENOSHA        PTSUNNY   70  50  49 W16G25    29.98R
6HR MIN TEMP:  62; 6HR MAX TEMP:  71;

FOND DU LAC    PTSUNNY   67  43  41 W14G22    29.96R
6HR MIN TEMP:  60; 6HR MAX TEMP:  69;

SHEBOYGAN      MOSUNNY   68  49  50 W17G24    29.93R
6HR MIN TEMP:  61; 6HR MAX TEMP:  69;

WEST BEND      MOSUNNY   66  43  42 W17G25    29.96S
JUNEAU         PTSUNNY   65  45  47 W8G17     29.98F
6HR MIN TEMP:  57; 6HR MAX TEMP:  65;

$$

LSZ147-162-241900-
LAKE SUPERIOR

STATION/POSITION TIME  TEMP    WIND        PRES    WAVE
                       AIR SEA DIR/SP/G            HT/PER
                 (UTC) (F)     (DEG/KT/KT) (MB)    (FT/S)
W MID LAKE BUOY  1750   45 39  260/  8/ 10 1012.2R   1/ 4
DEVILS ISLAND    1800   53     240/ 17/ 20 1012.7R
SAXON HARBOR     1730   60     250/  5/ 11 1012.9R
$$

LMZ867-665-643>646-241900-
LAKE MICHIGAN

STATION/POSITION TIME  TEMP    WIND        PRES    WAVE
                       AIR SEA DIR/SP/G            HT/PER
                 (UTC) (F)     (DEG/KT/KT) (MB)    (FT/S)
CHAMBERS ISLAND  1740   60     190/  4/  9 1011.2R
S GREEN BAY BUOY 1800   65     250/ 16/ 19 1011.6
N MID LAKE BUOY  1750   60 58  220/  4/  6 1011.8R   1
NORTHPORT PIER   1740   63     320/  7/  9 1011.2R
KEWAUNEE LAKESHO 1754   66     270/ 10/ 16 1011.6S
SHEBOYGAN LAKESH 1800   67     260/ 19/ 22 1012.9R
PORT WASHI



USA.gov is the U.S. government's official web portal to all federal, state and local government web resources and services.